Weather History for KEGV - December, 2012

Change the Weather History Date:

Sunday, December 16, 2012

  Actual Average Record
Temperature  
Mean Temperature 30 °F -  
Max Temperature 33 °F 31 °F 42 °F (1993)
Min Temperature 28 °F 18 °F -21 °F (2013)
Degree Days  
Heating Degree Days 34    
Moisture  
Dew Point 32 °F    
Average Humidity 100    
Maximum Humidity 100    
Minimum Humidity 100    
Precipitation  
Precipitation 0.10 in - - ()
Sea Level Pressure  
Sea Level Pressure 29.53 in    
Wind  
Wind Speed 3 mph (WNW)    
Max Wind Speed 10 mph    
Max Gust Speed -    
Visibility 4 miles    
Events Fog , Rain , Snow    
Averages and records for this station are not official NWS values.
T = Trace of Precipitation, MM = Missing Value Source: NWS Daily Summary

Daily Weather History Graph

Daily Weather History Graph

Search for Another Location

Airport or City:

Trip Planner

Search our weather history database for the weather conditions in past years. The results will help you decide how hot, cold, wet, or windy it might be!

Date:

Astronomy

Dec. 16, 2012 Rise Set
Actual Time 7:33 AM CST 4:12 PM CST
Civil Twilight 6:58 AM CST 4:47 PM CST
Nautical Twilight 6:20 AM CST 5:25 PM CST
Astronomical Twilight 5:44 AM CST 6:01 PM CST
Moon 9:56 AM CST (12/16) 8:38 PM CST (12/16)
Length of Visible Light 9h 49m
Length of Day
8h 39m
Waxing Crescent, 16% of the Moon is Illuminated
Dec 16
Waxing Crescent
Dec 19
First Quarter
Dec 28
Full
Jan 4
Last Quarter
Jan 11
New

Hourly Weather History & Observations

Time (CST) Temp. Windchill Dew Point Humidity Pressure Visibility Wind Dir Wind Speed Gust Speed Precip Events Conditions
12:15 AM 32.0 °F - 32.0 °F 100% 29.49 in 2.0 mi Calm Calm - N/A   Overcast
12:35 AM 32.0 °F - 32.0 °F 100% 29.48 in 1.2 mi Calm Calm - N/A   Overcast
12:55 AM 32.0 °F - 32.0 °F 100% 29.48 in 1.0 mi Calm Calm - N/A   Overcast
1:15 AM 32.0 °F - 32.0 °F 100% 29.48 in 0.8 mi Calm Calm - N/A   Overcast
1:35 AM 32.0 °F - 32.0 °F 100% 29.48 in 0.8 mi Calm Calm - N/A   Overcast
2:15 AM 32.0 °F - 32.0 °F 100% 29.48 in 0.8 mi Calm Calm - N/A   Overcast
2:35 AM 32.0 °F - 32.0 °F 100% 29.48 in 0.5 mi Calm Calm - N/A Fog Fog
2:55 AM 32.0 °F - 32.0 °F 100% 29.48 in 0.5 mi Calm Calm - N/A Fog Fog
3:15 AM 32.0 °F - 32.0 °F 100% 29.48 in 0.2 mi Calm Calm - N/A Fog Fog
3:35 AM - - - N/A% 29.48 in 0.2 mi Calm Calm - N/A Fog Fog
3:55 AM - - - N/A% 29.48 in 0.2 mi Calm Calm - N/A Rain Rain
4:15 AM - - - N/A% 29.48 in 0.5 mi Calm Calm - N/A Rain Light Rain
4:35 AM - - - N/A% 29.48 in 0.5 mi Calm Calm - 0.01 in Rain Rain
4:55 AM - - - N/A% 29.48 in 1.0 mi Calm Calm - 0.02 in Rain Rain
5:15 AM - - - N/A% 29.48 in 1.0 mi Calm Calm - N/A   Drizzle
5:35 AM - - - N/A% 29.48 in 1.2 mi Calm Calm - N/A   Drizzle
5:55 AM - - - N/A% 29.49 in 1.2 mi Calm Calm - 0.01 in   Drizzle
6:15 AM - - - N/A% 29.49 in 1.2 mi Calm Calm - N/A   Overcast
6:35 AM - - - N/A% 29.49 in 1.2 mi Calm Calm - N/A   Drizzle
6:55 AM - - - N/A% 29.49 in 1.5 mi Calm Calm - N/A   Unknown
7:15 AM - - - N/A% 29.49 in 1.8 mi Calm Calm - N/A   Unknown
7:35 AM - - - N/A% 29.49 in 0.8 mi Calm Calm - N/A   Unknown
7:55 AM - - - N/A% 29.49 in 1.2 mi Calm Calm - N/A   Unknown
8:15 AM - - - N/A% 29.50 in 1.8 mi Calm Calm - N/A   Unknown
8:55 AM - - - N/A% 29.51 in 1.8 mi Calm Calm - N/A   Unknown
9:15 AM - - - N/A% 29.51 in 2.0 mi WNW 4.6 mph - N/A   Unknown
9:35 AM - - - N/A% 29.52 in 2.5 mi WNW 3.5 mph - N/A   Unknown
9:55 AM - - - N/A% 29.53 in 2.0 mi WNW 4.6 mph - 0.02 in   Unknown
10:15 AM - - - N/A% 29.53 in 2.0 mi WNW 3.5 mph - 0.01 in   Unknown
10:35 AM - - - N/A% 29.53 in 2.5 mi WNW 4.6 mph - 0.03 in   Unknown
10:55 AM - - - N/A% 29.53 in 7.0 mi NW 4.6 mph - 0.04 in   Unknown
11:15 AM - - - N/A% 29.53 in 10.0 mi NW 4.6 mph - N/A   Overcast
11:35 AM - - - N/A% 29.53 in 10.0 mi WNW 6.9 mph - N/A   Overcast
11:55 AM - - - N/A% 29.52 in 5.0 mi NW 4.6 mph - N/A   Unknown
12:15 PM - - - N/A% 29.52 in 10.0 mi NW 5.8 mph - N/A   Overcast
12:35 PM 33.8 °F 26.4 °F 33.8 °F 100% 29.51 in 10.0 mi NW 9.2 mph - N/A   Overcast
12:55 PM 33.8 °F 27.7 °F 33.8 °F 100% 29.51 in 10.0 mi WNW 6.9 mph - N/A   Overcast
1:15 PM 33.8 °F 26.4 °F 33.8 °F 100% 29.52 in 10.0 mi WNW 9.2 mph - N/A   Overcast
1:35 PM 33.8 °F 27.0 °F 33.8 °F 100% 29.52 in 4.0 mi NW 8.1 mph - N/A   Overcast
1:55 PM 32.0 °F 23.6 °F 32.0 °F 100% 29.53 in 2.0 mi NW 10.4 mph - N/A   Overcast
2:15 PM 32.0 °F 24.8 °F 32.0 °F 100% 29.52 in 1.8 mi NW 8.1 mph - N/A Snow Light Snow
2:35 PM 32.0 °F 26.4 °F 32.0 °F 100% 29.53 in 1.8 mi NW 5.8 mph - N/A   Overcast
2:55 PM 32.0 °F 25.6 °F 32.0 °F 100% 29.54 in 1.5 mi NW 6.9 mph - N/A Snow Light Snow
3:15 PM 32.0 °F 25.6 °F 32.0 °F 100% 29.54 in 1.5 mi NW 6.9 mph - N/A Snow Light Snow
3:35 PM 32.0 °F 25.6 °F 32.0 °F 100% 29.54 in 1.5 mi NW 6.9 mph - N/A Snow Light Snow
3:55 PM 32.0 °F 25.6 °F 32.0 °F 100% 29.55 in 1.5 mi NW 6.9 mph - N/A   Overcast
4:15 PM 32.0 °F 24.2 °F 32.0 °F 100% 29.55 in 1.5 mi NW 9.2 mph - N/A   Overcast
4:35 PM 32.0 °F 26.4 °F 32.0 °F 100% 29.56 in 2.5 mi WNW 5.8 mph - N/A Snow Light Snow
4:55 PM 32.0 °F 27.5 °F 32.0 °F 100% 29.57 in 1.8 mi West 4.6 mph - N/A Snow Light Snow
5:15 PM 32.0 °F 26.4 °F 32.0 °F 100% 29.57 in 3.0 mi WNW 5.8 mph - N/A   Overcast
5:35 PM 32.0 °F 27.5 °F 32.0 °F 100% 29.57 in 5.0 mi WNW 4.6 mph - 0.01 in Snow Light Snow
5:55 PM 32.0 °F - 32.0 °F 100% 29.57 in 10.0 mi Calm Calm - 0.01 in   Overcast
6:15 PM 32.0 °F 26.4 °F 32.0 °F 100% 29.57 in 10.0 mi West 5.8 mph - N/A   Overcast
6:35 PM 32.0 °F 24.2 °F 32.0 °F 100% 29.58 in 10.0 mi NW 9.2 mph - N/A   Overcast
6:55 PM 32.0 °F 26.4 °F 32.0 °F 100% 29.58 in 10.0 mi NW 5.8 mph - N/A   Overcast
7:15 PM 32.0 °F 24.2 °F 32.0 °F 100% 29.58 in 4.0 mi WNW 9.2 mph - N/A   Overcast
7:35 PM 32.0 °F 24.2 °F 32.0 °F 100% 29.58 in 5.0 mi NW 9.2 mph - N/A   Overcast
7:55 PM 32.0 °F 24.8 °F 32.0 °F 100% 29.58 in 10.0 mi WNW 8.1 mph - N/A   Overcast
8:15 PM 32.0 °F 26.4 °F 32.0 °F 100% 29.59 in 3.0 mi NW 5.8 mph - N/A   Overcast
8:35 PM 32.0 °F 24.8 °F 32.0 °F 100% 29.59 in 2.5 mi NW 8.1 mph - N/A   Overcast
8:55 PM 32.0 °F 24.8 °F 32.0 °F 100% 29.60 in 4.0 mi NW 8.1 mph - N/A   Overcast
9:15 PM 32.0 °F 27.5 °F 32.0 °F 100% 29.60 in 5.0 mi WNW 4.6 mph - N/A   Overcast
9:35 PM 32.0 °F 26.4 °F 32.0 °F 100% 29.60 in 5.0 mi WNW 5.8 mph - N/A Snow Light Snow
9:55 PM 30.2 °F 22.6 °F 30.2 °F 100% 29.61 in 4.0 mi WNW 8.1 mph - N/A Snow Light Snow
10:15 PM 30.2 °F 24.3 °F 30.2 °F 100% 29.61 in 7.0 mi West 5.8 mph - N/A Snow Light Snow
10:35 PM 30.2 °F 22.6 °F 30.2 °F 100% 29.61 in 5.0 mi West 8.1 mph - N/A Snow Light Snow
10:55 PM 30.2 °F 23.4 °F 30.2 °F 100% 29.61 in 3.0 mi West 6.9 mph - N/A Snow Light Snow
11:15 PM 28.4 °F 20.4 °F 28.4 °F 100% 29.61 in 4.0 mi West 8.1 mph - N/A Snow Light Snow
11:35 PM 28.4 °F 22.2 °F 28.4 °F 100% 29.61 in 5.0 mi West 5.8 mph - N/A Snow Light Snow
11:55 PM 28.4 °F 19.7 °F 28.4 °F 100% 29.61 in 5.0 mi West 9.2 mph - N/A Snow Light Snow